Location: Unspecified
(0.0000°N, 0.0000°E)
Time: 06:06:11
(UTC+00:00)

ISS - Visible Passes

Search period start: 16 September 2019 00:00
Search period end: 26 September 2019 00:00
Orbit: 411 x 421 km, 51.6° (Epoch: 16 September)

Date Brightness Start Highest point End Pass type
(mag) Time Alt. Az. Time Alt. Az. Time Alt. Az.
17 Sep -1.1 05:13:39 10° N 05:16:16 21° NE 05:18:54 10° ESE visible
17 Sep -0.8 18:26:22 10° W 18:28:40 17° NW 18:30:57 10° N visible
19 Sep -3.8 05:12:39 10° NW 05:15:57 67° SW 05:19:18 10° SSE visible
20 Sep -2.8 04:26:50 38° NNE 04:27:32 44° NE 04:30:46 10° SE visible
21 Sep -1.8 05:14:45 12° WSW 05:15:38 13° SW 05:17:22 10° SSW visible
22 Sep -1.4 04:29:27 14° S 04:29:27 14° S 04:30:09 10° S visible
